This is the latest recevied weather packets stored in our database for station/object K5NOC-12. If no packets are shown the sender has not sent any weather packets the latest 10 day(s).
| Time | Temp. | Humidity | Pressure | Rain* | Wind** | Luminosity | Snow |
|---|---|---|---|---|---|---|---|
| 1777785107 | 15° C | 35% | 1020.9 hPa | 0 mm | - | - | - |
| 1777784207 | 15° C | 35% | 1020.9 hPa | 0 mm | - | - | - |
| 1777783307 | 15° C | 33% | 1020.8 hPa | 0 mm | - | - | - |
| 1777782406 | 15° C | 33% | 1020.9 hPa | 0 mm | - | - | - |
| 1777781506 | 15.56° C | 31% | 1020.9 hPa | 0 mm | - | - | - |
| 1777780606 | 15.56° C | 32% | 1020.9 hPa | 0 mm | - | - | - |
| 1777779706 | 16.11° C | 32% | 1020.9 hPa | 0 mm | - | - | - |
| 1777778806 | 16.11° C | 30% | 1020.8 hPa | 0 mm | - | - | - |
| 1777777906 | 16.67° C | 30% | 1020.6 hPa | 0 mm | - | - | - |
| 1777777005 | 17.22° C | 28% | 1020.5 hPa | 0 mm | - | - | - |
| 1777776105 | 17.78° C | 27% | 1020.3 hPa | 0 mm | - | - | - |
| 1777775205 | 18.33° C | 27% | 1020.3 hPa | 0 mm | - | - | - |
| 1777774305 | 18.89° C | 26% | 1020.2 hPa | 0 mm | - | - | - |
| 1777773405 | 19.44° C | 25% | 1020 hPa | 0 mm | - | - | - |
| 1777772505 | 20° C | 23% | 1019.8 hPa | 0 mm | - | - | - |
| 1777771604 | 20.56° C | 22% | 1019.7 hPa | 0 mm | - | - | - |
| 1777770704 | 21.11° C | 21% | 1019.6 hPa | 0 mm | - | - | - |
| 1777769804 | 21.67° C | 20% | 1019.6 hPa | 0 mm | - | - | - |
| 1777768904 | 21.67° C | 20% | 1019.6 hPa | 0 mm | - | - | - |
| 1777768004 | 21.67° C | 20% | 1019.6 hPa | 0 mm | - | - | - |
| 1777767104 | 21.67° C | 20% | 1019.6 hPa | 0 mm | - | - | - |
| 1777766204 | 22.22° C | 20% | 1019.7 hPa | 0 mm | - | - | - |
| 1777765303 | 21.67° C | 19% | 1019.8 hPa | 0 mm | - | - | - |
| 1777764403 | 22.78° C | 19% | 1019.8 hPa | 0 mm | - | - | - |
| 1777763503 | 22.22° C | 20% | 1019.8 hPa | 0 mm | - | - | - |
* Rain latest hour (hover to see other rain measurements)
** Current wind speed in m/s (hover to see current wind gust speed)